Date,TemperatureHighF,TemperatureAvgF,TemperatureLowF,DewpointHighF,DewpointAvgF,DewpointLowF,HumidityHigh,HumidityAvg,HumidityLow,PressureMaxIn,PressureMinIn,WindSpeedMaxMPH,WindSpeedAvgMPH,GustSpeedMaxMPH,PrecipitationSumIn
2013-1-1,39.3,32.0,27.6,37.3,31.1,26.6,98,96,90,30.34,30.19,1,0,2,0.00
2013-1-2,41.7,31.9,28.7,37.7,30.8,28.0,98,96,82,30.19,30.03,4,0,4,0.00
2013-1-3,40.0,32.2,25.1,37.9,29.7,23.8,97,91,72,30.04,29.95,7,0,7,0.09
2013-1-4,47.6,42.1,39.4,44.1,40.7,37.7,98,95,87,30.17,30.00,7,1,7,0.03
2013-1-5,41.7,40.2,39.1,40.1,38.2,36.6,98,93,84,30.03,29.96,9,0,9,0.05
2013-1-6,43.6,40.2,37.3,40.7,38.5,35.7,96,93,87,30.04,29.82,9,1,9,0.15
2013-1-7,48.9,45.4,41.8,47.9,44.0,40.2,98,95,91,30.02,29.70,14,3,14,0.24
2013-1-8,50.1,46.2,41.7,48.9,45.2,41.0,99,96,93,30.02,29.60,17,3,17,0.70
2013-1-9,48.7,40.2,34.7,47.9,38.9,33.5,97,95,89,29.80,29.54,14,2,14,0.88
2013-1-10,37.5,34.8,33.2,35.7,33.7,32.7,98,96,91,29.96,29.79,9,1,9,0.05
2013-1-11,40.6,31.6,27.5,33.0,29.1,26.0,98,91,63,30.17,29.96,5,0,5,0.01
2013-1-12,38.3,28.8,24.1,32.7,26.4,22.6,98,91,70,30.28,30.16,4,0,4,0.00
2013-1-13,36.4,28.4,22.9,31.1,25.7,21.4,95,90,74,30.34,30.27,4,0,4,0.00
2013-1-14,32.0,28.7,24.3,31.2,27.5,22.8,97,95,93,30.42,30.32,7,1,7,0.01
2013-1-15,44.1,34.1,28.7,38.1,32.4,27.6,98,93,76,30.55,30.41,9,0,9,0.01
2013-1-16,37.9,30.8,27.8,36.3,30.1,26.8,98,97,93,30.52,30.36,3,0,3,0.00
2013-1-17,34.7,31.7,29.0,34.2,31.2,28.5,99,98,97,30.37,30.14,5,0,5,0.00
2013-1-18,42.2,33.4,27.9,38.3,32.2,27.2,98,96,83,30.17,30.10,8,0,8,0.00
2013-1-19,37.1,35.2,32.8,35.5,34.1,31.9,97,96,93,30.23,30.16,3,0,3,0.00
2013-1-20,37.4,34.5,31.9,36.0,33.6,31.1,98,96,94,30.23,30.11,3,0,3,0.00
2013-1-21,35.3,32.4,29.1,34.5,31.8,28.4,98,98,96,30.12,29.98,4,0,4,0.00
2013-1-22,36.1,30.8,25.2,34.8,29.8,24.2,98,96,92,29.98,29.76,3,0,3,0.00
2013-1-23,39.5,36.9,34.5,38.5,35.2,32.6,97,94,87,30.00,29.70,7,1,8,0.14
2013-1-24,43.1,37.8,33.5,42.6,37.0,33.0,99,97,90,30.06,29.89,6,0,6,0.17
2013-1-25,52.0,43.6,35.6,46.5,42.0,34.5,98,94,78,29.90,29.77,11,1,11,0.03
2013-1-26,44.9,40.6,34.7,40.7,38.7,33.7,99,93,84,29.88,29.72,9,1,9,0.08
2013-1-27,40.6,39.2,37.8,39.3,37.8,36.7,97,95,92,29.92,29.84,11,2,11,0.07
2013-1-28,43.9,41.6,37.6,40.9,39.0,36.3,96,90,85,29.94,29.85,11,2,11,0.03
2013-1-29,48.2,45.7,43.3,44.2,42.7,40.5,95,89,84,30.23,29.94,12,2,12,0.02
2013-1-30,48.3,46.1,43.9,47.2,45.1,42.6,97,96,94,30.23,30.18,11,2,11,0.20
2013-1-31,47.9,45.6,43.3,45.7,44.3,42.2,98,95,90,30.25,30.15,9,1,9,0.03
2013-2-1,50.9,45.1,42.9,46.1,43.4,41.3,98,94,82,30.24,30.18,4,0,4,0.00
2013-2-2,46.3,41.2,34.9,42.4,39.6,34.1,98,94,85,30.21,30.09,4,0,4,0.00
2013-2-3,44.9,40.8,34.6,43.0,39.7,33.9,98,96,91,30.15,30.05,4,0,4,0.00
2013-2-4,51.1,44.9,40.6,44.6,42.3,39.0,96,91,76,30.06,29.74,4,0,4,0.00
2013-2-5,47.2,43.9,41.0,44.6,42.1,39.9,97,94,88,29.81,29.69,17,2,17,0.36
2013-2-6,47.3,44.2,41.9,43.0,41.5,39.6,96,90,78,29.89,29.61,15,2,15,0.16
2013-2-7,49.8,40.8,32.4,40.2,36.7,31.1,96,86,59,30.02,29.66,10,1,14,0.02
2013-2-8,46.1,36.8,30.1,39.4,34.1,29.1,98,90,73,30.15,30.02,6,0,7,0.00
2013-2-9,49.2,40.1,31.9,39.7,35.9,30.6,97,86,65,30.17,30.08,5,0,5,0.00
2013-2-10,44.8,42.5,40.7,40.5,39.2,37.5,95,88,76,30.21,30.16,3,0,3,0.00
2013-2-11,45.0,42.6,39.5,43.2,40.7,38.2,97,93,86,30.19,30.16,7,1,7,0.00
2013-2-12,49.7,46.1,43.5,46.1,44.2,42.3,97,93,84,30.25,30.18,11,2,11,0.01
2013-2-13,47.5,44.0,36.4,44.8,41.4,35.4,96,91,80,30.35,30.18,10,1,10,0.00
2013-2-14,46.9,42.3,35.5,45.4,41.2,34.5,98,96,91,30.39,30.34,7,0,7,0.01
2013-2-15,56.2,46.3,37.4,46.4,43.2,36.4,98,90,69,30.38,30.02,12,0,12,0.00
2013-2-16,50.4,44.2,36.7,44.1,39.8,35.3,97,85,70,30.05,30.01,14,2,14,0.00
2013-2-17,45.4,40.6,36.3,40.0,37.0,34.1,95,87,72,30.09,29.94,7,1,7,0.01
2013-2-18,44.7,39.4,34.8,38.7,35.8,33.8,97,87,71,29.94,29.58,9,1,9,0.02
2013-2-19,52.2,42.0,36.7,41.8,38.1,35.1,96,87,60,29.84,29.56,7,0,7,0.01
2013-2-20,44.4,38.5,33.2,39.7,36.6,31.9,97,93,80,29.90,29.82,7,1,7,0.11
2013-2-21,41.9,40.2,37.7,40.6,38.6,36.9,97,94,90,29.94,29.85,12,2,12,0.17
2013-2-22,46.4,41.1,37.6,43.7,39.0,35.2,96,92,78,29.93,29.59,19,3,19,1.17
2013-2-23,47.7,42.0,37.2,37.8,36.0,33.3,96,80,62,30.23,29.80,15,2,15,0.02
2013-2-24,47.3,43.0,38.4,38.8,36.9,34.9,92,80,67,30.23,29.79,15,3,15,0.00
2013-2-25,47.6,42.2,38.6,39.7,37.3,32.2,95,83,58,30.15,29.76,14,3,14,0.32
2013-2-26,39.6,37.5,36.7,36.3,35.2,34.5,93,91,88,30.19,30.14,6,1,6,0.00
2013-2-27,37.5,37.4,37.3,35.2,35.2,35.1,92,92,91,30.18,30.16,1,1,1,0.00
2013-2-28,37.8,37.7,37.5,35.1,35.1,35.0,91,90,90,30.16,30.15,1,1,1,0.00
2013-3-1,38.0,37.9,37.8,35.0,35.0,34.9,90,89,89,30.15,30.13,1,0,1,0.00
2013-3-2,38.3,38.2,38.0,34.9,34.9,34.8,89,88,87,30.13,30.11,0,0,1,0.00
2013-3-3,52.1,42.1,34.1,38.4,35.3,32.1,95,78,50,30.13,30.08,4,0,7,0.00
2013-3-4,53.9,40.0,29.7,36.0,32.3,28.5,96,77,42,30.13,29.75,2,0,4,0.00
2013-3-5,46.8,40.9,34.7,41.6,37.8,32.0,98,89,75,29.75,29.54,11,0,11,0.18
2013-3-6,43.5,41.3,39.3,42.4,40.4,38.6,98,96,92,29.74,29.41,6,0,6,0.33
2013-3-7,52.4,43.8,36.9,43.1,40.4,35.6,97,88,65,29.92,29.74,11,1,11,0.27
2013-3-8,53.6,43.1,35.5,43.4,39.6,33.7,98,88,63,30.08,29.91,8,0,8,0.00
2013-3-9,61.2,41.6,31.0,44.3,35.5,29.9,98,81,51,30.34,30.08,8,0,8,0.00
2013-3-10,45.5,41.0,34.7,43.2,39.1,32.9,97,93,86,30.34,30.26,3,0,3,0.05
2013-3-11,49.0,45.5,42.9,47.7,44.4,42.1,98,96,89,30.28,30.01,7,0,7,0.16
2013-3-12,53.1,50.4,48.7,50.2,48.6,47.5,97,94,87,30.01,29.93,14,2,14,0.22
2013-3-13,52.2,49.9,48.1,51.3,48.7,47.2,97,96,94,30.05,29.93,7,0,7,0.22
2013-3-14,51.3,49.3,47.9,48.7,47.5,45.0,98,93,79,29.99,29.87,9,1,9,0.07
2013-3-15,57.4,51.3,48.1,51.0,48.0,44.8,96,89,73,30.05,29.99,7,1,7,0.03
2013-3-16,49.2,45.2,38.7,45.7,42.2,35.3,96,89,72,29.99,29.79,13,2,13,0.25
2013-3-17,47.6,41.3,37.6,38.7,36.1,31.7,91,82,60,30.07,29.85,13,2,13,0.00
2013-3-18,52.4,42.9,34.7,40.9,35.4,29.6,96,77,44,30.06,30.01,12,2,14,0.10
2013-3-19,46.3,39.5,32.6,42.8,37.3,31.0,98,92,72,30.05,29.43,5,0,5,0.46
2013-3-20,50.8,45.0,36.9,49.4,42.4,34.1,98,91,79,29.91,29.23,18,3,18,0.93
2013-3-21,45.4,39.0,35.8,39.4,35.4,30.9,96,87,70,30.06,29.91,13,2,13,0.16
2013-3-22,47.4,37.5,30.0,37.3,33.0,28.6,96,84,60,30.22,30.05,9,0,9,0.01
2013-3-23,50.5,38.8,32.8,36.7,32.7,27.1,96,81,44,30.24,30.13,5,0,5,0.01
2013-3-24,54.5,40.4,31.3,37.9,33.5,29.5,94,78,47,30.13,29.95,7,0,7,0.00
2013-3-25,59.4,44.7,30.7,41.7,35.4,29.3,96,73,40,29.96,29.77,7,0,7,0.00
2013-3-26,60.6,50.8,44.5,48.0,42.8,36.5,93,75,44,29.85,29.78,5,0,5,0.00
2013-3-27,60.2,51.3,45.4,48.1,44.8,42.6,97,80,55,29.82,29.77,6,0,6,0.01
2013-3-28,60.1,51.2,46.8,51.7,47.5,45.2,97,88,62,29.98,29.82,8,0,8,0.18
2013-3-29,65.5,53.2,46.3,51.6,46.7,42.8,96,81,48,30.08,29.98,8,0,8,0.00
2013-3-30,69.0,52.0,38.7,48.9,43.3,37.3,97,75,40,30.08,29.90,6,0,6,0.00
2013-3-31,72.0,54.3,39.4,49.1,43.8,37.7,95,71,39,29.90,29.73,6,0,6,0.00
2013-4-1,65.5,52.7,45.9,50.4,46.9,43.4,95,82,52,30.00,29.82,8,1,8,0.00
2013-4-2,56.8,51.7,47.7,50.6,47.2,45.2,93,85,73,30.04,29.99,6,0,6,0.00
2013-4-3,60.9,52.8,46.7,49.3,45.8,43.0,92,78,61,30.03,29.78,8,0,8,0.00
2013-4-4,55.9,51.3,47.7,54.3,49.0,45.8,97,92,83,29.77,29.48,9,1,9,0.38
2013-4-5,54.9,51.2,48.0,51.1,49.3,46.9,97,93,82,29.72,29.56,11,2,11,0.85
2013-4-6,51.2,47.7,43.5,48.9,45.2,41.9,97,91,81,29.77,29.55,10,2,10,0.52
2013-4-7,48.4,43.9,39.3,43.7,41.1,37.9,97,90,78,29.73,29.34,12,1,12,0.83
2013-4-8,53.5,45.6,37.5,45.4,41.7,36.2,97,87,69,30.12,29.74,9,1,9,0.00
2013-4-9,53.9,46.7,37.3,45.0,41.5,36.0,97,83,65,30.19,30.03,7,0,7,0.00
2013-4-10,54.7,51.0,46.0,50.0,44.6,40.1,95,79,64,30.11,29.80,17,3,17,0.33
2013-4-11,57.3,48.5,40.7,43.0,39.0,34.2,92,71,46,30.14,30.03,10,2,10,0.00
2013-4-12,45.9,42.2,37.5,44.0,38.8,34.9,95,88,73,30.03,29.56,12,1,12,0.15
2013-4-13,47.6,42.1,37.9,42.8,38.5,32.5,94,87,75,29.84,29.66,14,2,14,0.31
2013-4-14,49.2,42.2,37.2,46.0,39.6,36.0,96,91,76,29.85,29.78,6,0,6,0.19
2013-4-15,56.7,42.8,32.8,44.8,38.2,31.8,98,86,54,30.02,29.78,7,0,7,0.05
2013-4-16,59.6,44.5,33.7,45.5,37.9,32.6,98,80,45,30.24,30.02,8,0,8,0.01
2013-4-17,56.7,45.8,35.7,43.7,38.4,33.9,95,77,50,30.31,30.24,10,1,10,0.00
2013-4-18,52.4,47.3,43.5,48.3,43.6,39.0,95,87,77,30.30,30.08,9,1,9,0.01
2013-4-19,55.4,50.4,47.8,51.3,47.9,45.3,96,92,80,30.08,29.90,12,2,12,0.21
2013-4-20,56.7,49.8,46.1,46.6,44.8,42.6,94,83,64,30.13,30.07,14,2,14,0.00
2013-4-21,55.9,47.5,42.2,47.0,43.0,40.1,96,85,59,30.20,30.06,10,1,10,0.05
2013-4-22,63.3,47.7,34.8,45.9,35.1,23.5,98,68,26,30.35,30.20,7,0,7,0.00
2013-4-23,65.3,48.4,32.5,39.6,32.7,26.7,94,60,25,30.26,30.06,2,0,4,0.00
2013-4-24,71.1,53.2,36.4,44.6,37.6,32.2,92,61,24,30.15,29.89,5,0,5,0.00
2013-4-25,73.7,55.8,40.0,52.6,42.9,37.3,92,65,34,30.00,29.87,5,0,5,0.00
2013-4-26,73.1,55.7,44.6,54.5,43.1,27.2,94,68,23,30.09,30.00,5,0,5,0.00
2013-4-27,56.7,52.9,50.3,49.8,44.9,37.3,95,75,55,30.08,30.02,11,1,11,0.00
2013-4-28,58.2,51.8,48.0,48.7,45.7,39.1,96,81,54,30.06,29.80,12,2,12,0.21
2013-4-29,55.1,48.4,40.1,48.5,37.6,30.1,96,67,43,30.01,29.79,20,3,20,0.03
2013-4-30,57.4,46.5,37.0,38.9,34.0,27.3,88,64,37,30.29,30.00,9,0,9,0.00
2013-5-1,65.2,48.7,32.9,39.9,33.5,26.5,93,61,26,30.40,30.29,5,0,5,0.00
2013-5-2,71.0,54.0,39.1,46.3,39.5,33.8,90,61,36,30.37,30.18,6,0,6,0.00
2013-5-3,54.4,45.2,40.7,45.4,39.9,37.7,90,82,69,30.22,30.20,2,0,2,0.00
2013-5-4,81.7,63.4,46.3,51.3,44.5,37.8,89,55,25,30.16,29.81,3,0,6,0.00
2013-5-5,85.6,65.6,47.0,52.8,44.2,38.3,85,52,19,29.81,29.58,3,0,5,0.00
2013-5-6,86.7,65.7,49.0,56.2,48.5,43.5,86,58,23,29.68,29.58,9,0,9,0.00
2013-5-7,71.0,58.0,50.7,57.4,50.6,47.4,91,77,57,29.86,29.67,8,0,8,0.00
2013-5-8,70.5,57.3,50.3,57.1,50.6,46.8,90,79,57,29.98,29.86,6,0,6,0.00
2013-5-9,76.2,59.0,47.9,57.9,50.7,45.8,94,77,42,30.06,29.94,6,0,6,0.00
2013-5-10,82.0,63.5,47.9,62.4,52.9,43.7,95,71,44,30.04,29.92,6,0,6,0.00
2013-5-11,83.5,65.2,53.2,62.6,52.9,42.6,85,66,42,30.02,29.83,8,0,8,0.00
2013-5-12,69.2,62.6,57.4,59.7,56.8,54.6,94,82,67,29.93,29.86,7,0,7,0.01
2013-5-13,63.5,56.0,46.3,56.8,51.9,43.2,95,87,68,30.05,29.78,17,2,17,0.32
2013-5-14,67.5,54.3,45.6,47.8,44.1,39.1,93,71,40,30.07,29.94,8,0,8,0.00
2013-5-15,58.4,52.2,43.7,52.3,47.5,41.6,93,84,62,29.96,29.85,6,0,6,0.02
2013-5-16,71.8,57.9,50.3,56.6,51.6,45.7,96,82,45,29.85,29.70,8,0,8,0.14
2013-5-17,64.1,55.6,51.5,54.1,50.5,47.4,95,83,58,29.92,29.80,7,1,7,0.02
2013-5-18,59.4,53.9,49.6,52.7,49.8,46.0,94,86,75,30.11,29.92,6,0,6,0.02
2013-5-19,65.7,55.9,49.8,54.8,49.8,46.0,94,81,59,30.23,30.12,5,0,5,0.00
2013-5-20,70.0,55.6,46.3,54.0,47.7,42.5,92,76,50,30.20,29.76,8,0,8,0.04
2013-5-21,56.2,49.7,45.9,49.6,45.1,41.5,96,85,65,29.77,29.64,10,1,10,0.53
2013-5-22,49.6,46.9,45.0,47.4,44.4,41.8,96,91,85,29.77,29.70,8,1,8,0.24
2013-5-23,49.2,46.4,41.8,47.9,44.6,40.1,96,93,83,29.83,29.77,5,0,5,0.31
2013-5-24,57.7,50.5,45.9,52.3,48.3,45.1,97,92,75,29.90,29.80,7,0,7,0.22
2013-5-25,59.1,52.8,48.1,53.4,49.0,46.2,96,87,65,29.89,29.80,5,0,5,0.02
2013-5-26,62.8,54.5,49.5,57.5,51.3,48.1,97,89,74,29.83,29.78,7,0,7,0.13
2013-5-27,60.9,54.6,51.0,57.5,51.9,49.2,97,91,78,29.81,29.53,13,1,13,0.38
2013-5-28,62.2,55.0,50.7,54.6,50.0,46.3,96,84,64,29.73,29.60,10,1,10,0.04
2013-5-29,58.0,52.5,48.4,53.1,49.1,47.3,97,89,73,29.84,29.51,11,1,11,0.41
2013-5-30,55.4,50.8,48.4,50.5,47.5,45.6,92,88,77,29.98,29.84,10,1,10,0.02
2013-5-31,65.7,55.1,46.5,51.9,47.2,42.5,96,77,46,30.18,30.08,5,0,5,0.01
2013-6-1,75.0,60.2,50.0,57.0,50.3,46.9,91,72,47,30.09,29.87,8,0,8,0.00
2013-6-2,68.6,59.6,53.4,55.6,51.1,47.8,89,74,57,29.93,29.88,6,0,6,0.00
2013-6-3,74.5,58.6,46.7,58.5,50.2,44.8,94,76,48,29.97,29.88,7,0,7,0.00
2013-6-4,81.5,63.3,45.9,58.7,51.2,44.1,95,69,36,29.97,29.84,6,0,6,0.00
2013-6-5,79.3,64.7,52.6,62.3,55.2,50.3,94,73,48,29.93,29.84,7,0,7,0.00
2013-6-6,80.3,63.7,52.0,62.1,52.1,34.7,95,69,27,29.90,29.83,9,0,9,0.00
2013-6-7,68.5,59.5,52.8,57.5,50.6,45.0,87,73,57,29.99,29.87,10,1,10,0.00
2013-6-8,73.7,58.8,49.1,57.3,50.7,46.1,93,76,52,30.03,29.92,7,0,7,0.00
2013-6-9,69.3,57.1,49.9,55.1,48.8,44.3,94,76,47,29.96,29.86,11,0,11,0.00
2013-6-10,68.8,55.2,43.7,53.6,46.7,41.5,94,75,49,29.88,29.73,10,0,10,0.00
2013-6-11,63.2,54.9,47.8,52.0,47.6,43.7,92,77,54,29.96,29.80,11,1,11,0.03
2013-6-12,62.5,54.9,49.4,54.4,49.2,45.7,93,82,58,29.99,29.95,13,1,13,0.10
2013-6-13,66.0,56.9,51.7,55.5,50.6,48.0,95,80,60,30.08,29.98,7,0,7,0.04
2013-6-14,65.0,56.6,51.1,53.5,50.2,47.6,91,80,60,30.08,29.88,7,0,7,0.00
2013-6-15,74.8,61.1,45.9,60.1,51.2,44.4,96,73,47,29.88,29.75,6,0,6,0.00
2013-6-16,70.8,61.1,52.0,59.1,53.3,49.5,93,76,58,29.94,29.84,9,0,9,0.00
2013-6-17,75.0,61.1,54.9,57.7,53.6,50.7,95,78,47,29.94,29.76,9,0,9,0.12
2013-6-18,70.0,58.9,52.7,54.7,51.9,47.4,97,79,49,29.82,29.75,9,0,9,0.01
2013-6-19,67.5,58.5,51.2,54.2,50.6,47.8,94,76,53,29.87,29.77,12,1,12,0.00
2013-6-20,61.6,57.2,53.8,53.1,50.7,47.2,91,79,61,29.96,29.82,9,1,9,0.00
2013-6-21,69.4,59.1,53.2,56.3,52.5,49.7,92,80,60,30.00,29.94,7,0,7,0.00
2013-6-22,78.7,62.9,48.9,58.6,53.0,47.2,97,73,41,29.96,29.67,2,0,2,0.00
2013-6-23,66.6,62.4,59.4,62.4,58.8,55.0,97,88,72,29.67,29.45,0,0,0,0.55
2013-6-24,67.3,60.3,56.6,58.9,56.3,54.1,97,87,67,29.53,29.41,7,1,7,0.10
2013-6-25,71.2,60.9,56.6,61.5,56.8,54.6,97,87,62,29.68,29.50,12,0,12,0.22
2013-6-26,68.8,61.7,56.9,61.3,57.9,55.5,97,88,70,29.90,29.67,13,0,13,0.08
2013-6-27,69.5,62.3,58.1,65.0,60.7,56.8,98,95,85,30.03,29.87,1,0,1,0.30
2013-6-28,86.3,70.2,60.4,70.4,63.3,59.8,98,81,53,30.02,29.87,10,0,10,0.00
2013-6-29,86.0,70.8,62.2,67.3,61.8,58.7,91,75,46,29.94,29.82,1,0,1,0.00
2013-6-30,91.6,75.2,60.3,71.1,63.2,58.4,94,69,40,29.84,29.66,5,0,5,0.00
2013-7-1,88.5,73.6,62.2,72.4,63.9,58.1,91,73,52,29.86,29.73,6,0,6,0.00
2013-7-2,81.3,67.6,58.5,68.3,59.6,55.4,94,77,48,29.94,29.86,6,0,6,0.00
2013-7-3,81.8,65.6,54.3,61.8,54.6,45.5,90,70,39,29.99,29.87,9,0,9,0.00
2013-7-4,70.3,61.3,54.2,58.2,54.1,50.7,90,78,57,29.97,29.87,6,0,6,0.00
2013-7-5,73.0,61.6,52.3,58.9,54.0,50.0,94,77,54,29.88,29.79,5,0,5,0.00
2013-7-6,80.0,64.3,50.9,61.7,55.7,48.9,95,76,47,29.83,29.69,7,0,7,0.00
2013-7-7,77.2,63.1,54.7,63.6,56.7,52.1,94,81,59,29.80,29.72,7,0,7,0.00
2013-7-8,77.3,63.4,52.8,63.8,56.8,50.2,92,80,59,29.94,29.80,5,0,5,0.00
2013-7-9,87.3,69.6,55.6,66.6,58.8,53.7,96,72,38,29.94,29.82,7,0,7,0.00
2013-7-10,77.5,62.7,54.6,58.5,52.9,47.6,91,72,42,29.91,29.80,11,0,11,0.00
2013-7-11,74.3,60.2,48.4,58.1,50.2,45.3,90,71,44,29.91,29.82,4,0,8,0.00
2013-7-12,68.5,58.6,50.5,56.6,50.7,47.4,93,76,58,29.94,29.84,5,0,5,0.00
2013-7-13,78.5,61.8,47.4,56.9,49.5,44.9,94,68,36,30.04,29.92,3,0,6,0.00
2013-7-14,84.0,64.6,49.3,58.6,50.6,40.8,92,65,26,29.97,29.81,8,0,8,0.00
2013-7-15,82.5,66.1,49.7,58.8,50.4,46.4,92,61,30,29.88,29.71,3,0,6,0.00
2013-7-16,82.6,69.4,54.3,61.1,53.7,47.2,92,60,33,29.73,29.62,3,0,3,0.00
2013-7-17,70.2,63.3,55.1,59.7,55.8,51.5,89,77,62,30.03,29.73,7,1,8,0.00
2013-7-18,77.5,63.4,51.7,64.8,56.0,49.7,95,78,55,30.07,29.94,5,0,5,0.00
2013-7-19,80.0,64.2,52.4,65.3,56.9,50.3,95,79,53,30.01,29.86,7,0,7,0.00
2013-7-20,76.2,62.5,54.1,63.7,56.3,51.8,95,81,58,29.94,29.79,7,0,7,0.00
2013-7-21,75.8,62.0,54.9,63.6,56.5,52.5,95,83,60,29.83,29.75,9,0,9,0.00
2013-7-22,76.8,63.0,55.1,63.6,57.3,53.4,95,82,60,29.90,29.79,8,0,8,0.00
2013-7-23,87.7,68.2,54.6,65.7,58.5,53.4,97,75,38,29.91,29.78,8,0,8,0.00
2013-7-24,85.7,67.4,53.9,64.9,57.3,52.3,96,73,40,29.91,29.81,7,0,7,0.00
2013-7-25,85.5,66.6,51.9,62.9,55.8,50.1,97,72,35,29.95,29.86,6,0,6,0.00
2013-7-26,84.8,67.1,53.6,64.4,54.3,45.4,93,67,30,29.99,29.90,9,0,9,0.00
2013-7-27,77.7,62.7,51.6,60.4,53.6,48.8,94,74,47,30.00,29.84,6,0,6,0.00
2013-7-28,68.3,58.7,52.4,57.0,53.3,49.3,93,83,66,29.87,29.82,12,1,12,0.00
2013-7-29,77.3,62.7,51.7,63.0,54.6,48.9,92,76,51,29.85,29.77,6,0,6,0.00
2013-7-30,76.5,62.0,54.1,63.9,56.0,51.7,94,82,59,29.98,29.85,14,0,14,0.00
2013-7-31,75.5,61.5,55.9,65.0,57.0,53.6,95,86,64,29.96,29.82,5,0,5,0.00
2013-8-1,67.8,60.6,55.4,58.7,55.2,52.5,91,83,67,29.92,29.88,6,1,8,0.00
2013-8-2,64.5,60.6,56.4,59.4,56.9,53.8,93,88,79,29.96,29.90,12,0,12,0.01
2013-8-3,75.7,64.2,58.1,62.9,58.0,55.0,92,81,58,29.96,29.87,5,0,5,0.00
2013-8-4,83.3,68.1,55.9,65.6,59.2,54.2,95,76,49,29.89,29.76,7,0,7,0.00
2013-8-5,85.2,67.7,55.9,66.1,58.5,53.5,96,75,46,29.86,29.75,8,0,8,0.00
2013-8-6,86.5,66.2,50.6,65.6,55.1,48.9,96,71,30,29.85,29.73,7,0,7,0.00
2013-8-7,84.7,66.5,53.1,65.1,57.2,51.7,97,75,38,29.86,29.77,5,0,5,0.00
2013-8-8,81.8,66.4,56.9,66.4,58.7,54.6,94,78,54,29.87,29.76,5,0,5,0.00
2013-8-9,80.8,65.4,55.5,65.6,58.1,53.7,96,79,51,29.79,29.67,7,0,7,0.00
2013-8-10,78.8,65.0,57.3,66.8,58.6,49.5,96,81,42,29.86,29.72,7,0,7,0.07
2013-8-11,75.0,63.8,55.7,62.4,56.3,52.2,93,77,56,29.90,29.82,7,0,7,0.00
2013-8-12,75.7,64.6,58.2,60.9,55.6,52.8,88,73,53,29.91,29.84,6,0,6,0.00
2013-8-13,81.7,65.9,53.8,62.1,55.2,51.2,94,71,39,29.94,29.75,5,0,5,0.00
2013-8-14,78.4,64.2,56.5,62.4,58.0,53.9,96,82,48,29.79,29.74,9,0,9,0.10
2013-8-15,67.9,63.8,61.2,65.8,62.4,60.0,97,95,91,29.82,29.75,0,0,2,0.09
2013-8-16,83.4,68.4,60.5,68.0,61.1,54.2,98,80,46,29.85,29.78,10,0,10,0.00
2013-8-17,76.4,66.1,59.4,63.0,59.1,56.2,92,79,57,29.91,29.85,6,1,6,0.00
2013-8-18,75.3,64.7,55.5,63.6,57.8,53.5,94,79,60,29.96,29.90,8,0,8,0.00
2013-8-19,76.5,65.0,55.5,62.7,57.3,53.5,95,78,50,29.95,29.89,9,0,9,0.00
2013-8-20,78.3,64.7,52.1,59.2,52.9,47.9,94,69,41,29.99,29.89,7,0,7,0.00
2013-8-21,81.2,64.9,49.9,57.8,51.6,47.9,95,66,39,29.91,29.75,5,0,5,0.00
2013-8-22,81.5,67.0,53.7,67.8,55.9,51.5,94,70,39,29.77,29.64,5,0,5,0.00
2013-8-23,72.7,65.2,60.5,60.3,57.9,55.3,92,78,57,29.74,29.68,8,1,8,0.00
2013-8-24,72.8,64.1,58.3,60.9,57.0,52.7,95,79,57,29.75,29.68,6,0,6,0.01
2013-8-25,69.2,60.8,51.1,59.7,55.0,49.1,97,82,64,29.78,29.70,4,0,4,0.00
2013-8-26,73.0,63.3,58.5,60.3,57.6,53.1,93,83,51,29.78,29.69,14,0,14,0.08
2013-8-27,79.3,67.0,60.2,65.8,60.9,57.8,94,82,57,29.78,29.62,6,0,6,0.01
2013-8-28,77.8,67.6,61.4,66.7,62.8,60.5,97,85,63,29.74,29.66,4,0,4,0.15
2013-8-29,74.3,65.8,63.0,68.8,63.7,61.3,97,93,78,29.87,29.66,11,0,11,0.92
2013-8-30,77.0,66.5,58.5,62.1,59.3,56.0,97,79,55,29.98,29.87,7,0,7,0.00
2013-8-31,82.2,65.7,52.6,65.0,57.6,51.2,96,78,47,29.91,29.66,4,0,4,0.00
2013-9-1,80.0,66.7,57.6,62.9,58.2,54.9,95,76,50,29.72,29.63,7,0,7,0.00
2013-9-2,78.0,67.2,59.6,63.1,58.7,55.6,92,75,53,29.77,29.69,4,0,8,0.00
2013-9-3,75.1,64.0,58.6,66.0,60.1,55.6,97,88,64,29.85,29.76,4,0,4,0.58
2013-9-4,71.9,63.7,57.8,63.8,60.2,56.4,97,89,70,29.89,29.82,0,0,0,0.05
2013-9-5,68.7,63.1,60.7,62.7,61.0,59.3,97,93,76,29.87,29.76,6,0,6,0.09
2013-9-6,67.4,63.5,60.5,63.0,61.1,59.6,98,92,80,29.94,29.77,7,0,7,0.18
2013-9-7,74.3,64.0,57.5,64.0,59.8,56.5,98,87,63,29.95,29.84,6,0,6,0.07
2013-9-8,80.2,65.8,55.7,65.9,59.1,54.6,98,81,47,29.94,29.84,1,0,1,0.03
2013-9-9,69.7,69.0,68.3,62.4,62.3,62.2,81,79,77,29.85,29.82,0,0,1,0.00
2013-9-10,79.1,71.0,63.2,65.3,61.9,58.9,87,74,58,29.82,29.70,1,0,2,0.00
2013-9-11,89.7,69.5,55.9,70.2,61.1,54.8,96,77,39,29.77,29.68,1,0,4,0.00
2013-9-12,81.3,65.5,58.8,68.1,60.6,57.3,96,85,59,29.84,29.73,5,0,5,0.02
2013-9-13,66.7,62.5,59.7,62.0,59.6,57.6,96,90,83,29.80,29.70,2,0,2,0.01
2013-9-14,69.1,63.0,58.7,63.4,60.1,57.2,96,90,79,29.71,29.57,0,0,1,0.02
2013-9-15,66.2,60.8,56.5,62.8,59.0,55.3,98,94,85,29.66,29.55,6,0,6,0.01
2013-9-16,69.3,62.3,57.8,61.0,58.3,55.1,96,87,69,29.76,29.66,9,1,9,0.01
2013-9-17,67.8,58.4,52.8,56.8,54.5,51.3,96,87,58,29.77,29.68,3,0,3,0.01
2013-9-18,70.3,57.2,49.0,58.7,52.9,48.1,98,87,60,29.90,29.77,4,0,4,0.01
2013-9-19,75.6,59.6,49.8,59.5,52.6,48.9,98,80,45,29.87,29.60,2,0,2,0.00
2013-9-20,69.0,57.8,49.7,57.8,53.9,48.0,97,88,62,29.60,29.44,4,0,6,0.01
2013-9-21,69.6,59.9,54.6,58.5,55.1,51.8,98,85,58,29.55,29.49,5,0,7,0.01
2013-9-22,61.4,56.5,54.8,58.4,54.5,52.8,96,93,85,29.61,29.40,10,1,10,1.19
2013-9-23,58.6,55.5,51.9,56.2,53.7,50.5,97,94,90,29.81,29.61,9,1,9,0.41
2013-9-24,62.9,52.7,49.7,53.8,50.6,48.7,98,93,64,29.80,29.68,7,0,7,0.15
2013-9-25,60.4,52.7,49.0,54.2,49.8,47.4,97,90,69,29.86,29.68,3,0,3,0.04
2013-9-26,63.9,51.6,44.1,54.4,48.4,43.3,98,90,66,29.97,29.86,5,0,5,0.00
2013-9-27,55.4,52.4,47.0,54.0,50.9,45.6,97,95,93,29.97,29.70,10,1,10,0.13
2013-9-28,60.5,55.7,52.1,58.8,54.4,50.4,98,95,88,29.70,29.20,16,1,18,2.17
2013-9-29,55.1,53.1,51.0,53.6,51.2,47.8,96,93,89,29.41,29.01,17,2,17,0.67
2013-9-30,56.9,51.6,47.7,53.3,49.3,46.1,96,92,83,29.78,29.29,12,2,12,1.46
2013-10-1,56.7,50.6,46.5,51.8,48.1,45.1,97,91,73,29.98,29.75,8,1,8,0.70
2013-10-2,53.2,49.0,45.6,50.2,47.5,44.6,97,95,86,30.01,29.88,6,0,6,0.43
2013-10-3,57.7,49.2,44.6,51.9,46.9,43.9,98,92,71,30.28,30.02,4,0,4,0.00
2013-10-4,63.4,49.1,42.0,53.6,46.3,41.2,98,91,64,30.32,30.19,4,0,4,0.00
2013-10-5,67.5,51.0,41.2,56.2,47.3,40.7,98,89,51,30.19,29.97,4,0,4,0.00
2013-10-6,72.8,54.9,41.0,54.4,46.5,40.2,97,77,38,29.97,29.73,8,0,8,0.01
2013-10-7,58.1,53.4,51.3,52.4,50.3,48.2,95,89,75,29.89,29.75,10,1,10,0.20
2013-10-8,58.0,50.5,42.8,49.5,46.5,41.7,97,87,63,29.91,29.79,7,1,12,0.22
2013-10-9,58.3,47.0,39.1,49.5,44.2,38.3,98,91,66,29.98,29.80,5,0,5,0.00
2013-10-10,56.0,50.2,45.4,53.9,48.5,44.1,97,94,86,29.91,29.77,5,0,5,0.03
2013-10-11,55.3,49.4,42.0,50.4,47.0,41.5,98,92,78,29.98,29.90,2,0,3,0.00
2013-10-12,58.1,49.1,43.5,51.0,46.7,42.1,97,92,72,30.05,29.91,3,0,3,0.13
2013-10-13,59.2,47.5,40.9,50.5,44.6,40.0,98,90,67,30.19,30.05,6,0,6,0.00
2013-10-14,59.7,47.8,41.2,50.5,44.8,39.9,98,90,65,30.26,30.19,5,0,5,0.00
2013-10-15,60.1,46.4,39.2,52.6,44.2,38.0,98,92,72,30.23,30.01,1,0,1,0.00
2013-10-16,54.4,46.9,41.2,50.0,45.2,40.4,98,94,83,30.04,29.98,1,0,1,0.01
2013-10-17,60.4,50.0,42.3,52.0,46.8,40.9,96,89,70,30.11,30.04,1,0,1,0.00
2013-10-18,53.6,46.5,40.9,50.0,45.4,40.1,98,96,87,30.08,29.98,1,0,1,0.00
2013-10-19,49.2,45.4,40.7,48.4,44.7,39.9,99,97,96,30.02,29.98,1,0,1,0.00
2013-10-20,49.2,47.6,46.3,47.3,46.3,45.5,98,95,92,30.03,29.97,0,0,0,0.00
2013-10-21,50.7,48.2,46.4,48.7,46.9,45.5,97,95,91,29.99,29.92,1,0,1,0.00
2013-10-22,60.9,50.4,43.8,53.5,48.0,42.5,97,92,74,29.94,29.86,2,0,2,0.00
2013-10-23,55.1,47.5,43.9,52.0,46.5,42.9,98,96,88,29.88,29.81,2,0,2,0.01
2013-10-24,50.4,45.8,41.7,48.9,44.9,40.9,98,97,94,29.97,29.86,1,0,1,0.01
2013-10-25,54.6,50.3,45.3,51.2,48.1,43.5,98,92,85,30.14,29.96,2,0,2,0.00
2013-10-26,52.2,48.8,44.3,47.7,46.1,43.0,97,91,83,30.17,30.02,1,0,1,0.00
2013-10-27,57.2,49.7,42.4,49.7,46.4,40.7,95,88,76,30.03,29.73,6,0,6,0.00
2013-10-28,60.6,49.2,38.4,42.5,37.5,32.4,97,67,38,29.78,29.70,8,0,8,0.00
2013-10-29,59.8,42.8,32.6,42.4,36.5,30.7,95,80,44,29.87,29.77,6,0,6,0.00
2013-10-30,56.2,45.9,35.8,47.1,41.1,34.0,94,84,66,29.98,29.87,8,0,8,0.02
2013-10-31,54.1,50.5,46.7,52.1,48.9,45.2,97,94,89,30.09,29.94,10,1,10,0.13
2013-11-1,58.5,49.7,44.2,53.1,48.0,43.2,98,94,81,30.11,29.68,4,0,4,0.02
2013-11-2,53.0,49.5,45.8,50.7,45.2,39.0,97,86,65,29.76,29.36,13,3,20,0.58
2013-11-3,53.7,45.0,35.2,41.7,38.9,32.9,94,80,56,29.95,29.75,12,1,12,0.00
2013-11-4,47.8,41.0,32.9,43.1,38.6,31.1,97,91,76,30.02,29.88,3,0,3,0.18
2013-11-5,54.4,48.9,42.9,50.0,46.1,41.3,97,91,71,30.08,29.85,8,1,8,0.08
2013-11-6,50.6,46.6,43.3,46.6,44.9,42.0,97,94,82,30.15,29.87,0,0,0,0.43
2013-11-7,53.2,49.2,46.9,52.2,47.3,44.6,98,93,88,29.86,29.58,19,3,19,0.86
2013-11-8,54.4,47.9,41.3,47.4,44.2,40.0,95,87,72,29.99,29.86,11,1,11,0.00
2013-11-9,46.7,43.1,37.9,44.9,42.0,36.9,98,96,90,29.98,29.90,1,0,1,0.07
2013-11-10,51.3,47.3,45.0,47.4,45.3,44.2,98,93,84,29.97,29.91,2,0,2,0.00
2013-11-11,54.8,47.0,43.4,48.6,44.8,42.3,97,92,78,29.99,29.85,2,0,2,0.00
2013-11-12,58.5,50.6,43.9,53.3,48.5,43.1,97,93,81,30.22,29.87,6,1,11,0.15
2013-11-13,54.7,48.8,42.3,50.0,46.8,41.1,98,93,81,30.28,30.15,6,0,6,0.04
2013-11-14,53.2,45.1,41.1,47.2,43.3,40.3,98,93,79,30.15,29.90,5,0,5,0.00
2013-11-15,47.4,44.3,38.8,46.5,42.6,37.7,97,94,82,29.91,29.25,16,2,16,0.31
2013-11-16,47.7,45.0,41.3,41.4,38.9,36.7,93,79,69,29.64,29.26,18,2,18,0.03
2013-11-17,48.4,45.3,40.7,47.5,44.2,38.8,97,96,92,29.75,29.64,9,1,9,0.40
2013-11-18,51.4,49.4,47.7,49.9,48.1,46.9,98,95,93,29.75,29.38,14,2,14,0.75
2013-11-19,51.2,44.8,36.7,50.4,41.6,34.9,97,89,67,29.89,29.42,10,1,10,0.19
2013-11-20,45.8,35.6,28.9,35.2,30.3,27.1,94,82,57,30.34,29.89,7,0,7,0.00
2013-11-21,45.7,32.4,25.9,32.8,27.8,24.4,97,84,55,30.49,30.33,4,0,4,0.01
2013-11-22,47.0,33.4,25.9,35.3,28.9,24.2,94,85,57,30.48,30.29,2,0,3,0.00
2013-11-23,47.6,34.4,27.1,39.4,31.7,25.6,96,90,72,30.29,30.04,6,0,6,0.00
2013-11-24,43.2,35.1,29.7,40.1,33.9,28.6,98,95,89,30.09,30.00,2,0,2,0.00
2013-11-25,50.5,37.3,29.9,41.1,33.6,28.9,97,87,60,30.16,30.09,5,0,5,0.01
2013-11-26,50.1,39.2,29.8,42.0,35.4,28.5,97,87,62,30.10,29.92,4,0,4,0.00
2013-11-27,53.9,42.8,35.7,46.6,40.2,34.3,97,91,73,29.92,29.79,0,0,0,0.00
2013-11-28,54.4,38.5,31.4,43.6,35.7,30.4,98,90,62,30.02,29.86,6,0,6,0.00
2013-11-29,48.1,43.8,35.6,44.8,41.2,34.6,97,90,85,30.16,30.02,10,1,10,0.00
2013-11-30,49.0,46.3,43.3,46.0,44.2,42.0,96,92,86,30.17,29.95,9,1,9,0.14
2013-12-1,52.6,49.5,43.1,51.3,47.2,38.4,97,92,75,29.95,29.65,18,2,18,0.70
2013-12-2,42.7,38.1,33.4,38.9,34.7,32.3,96,88,73,29.89,29.71,10,1,10,0.06
2013-12-3,42.5,33.4,27.1,32.6,27.5,22.7,97,80,53,30.15,29.89,4,0,4,0.00
2013-12-4,38.7,28.2,23.4,29.8,24.6,21.4,95,87,64,30.19,30.13,4,0,4,0.00
2013-12-5,31.7,25.7,19.7,27.8,23.3,17.5,94,90,82,30.16,30.01,4,0,4,0.00
2013-12-6,33.9,28.6,25.8,25.5,16.9,7.3,92,64,42,30.03,29.92,7,0,7,0.00
2013-12-7,32.9,24.6,17.1,15.3,10.8,6.2,83,56,39,30.27,30.02,6,0,6,0.00
2013-12-8,34.1,22.8,15.6,18.4,15.1,11.3,87,74,45,30.43,30.27,4,0,4,0.00
2013-12-9,30.8,26.7,20.6,27.0,22.0,16.3,93,82,75,30.43,30.33,6,1,6,0.00
2013-12-10,34.8,31.9,28.5,33.8,30.7,26.7,97,95,93,30.35,30.25,4,0,4,0.03
2013-12-11,35.6,33.0,30.6,34.8,32.2,29.8,98,97,95,30.25,30.01,5,0,5,0.00
2013-12-12,40.7,35.1,29.4,39.8,34.0,28.7,98,96,92,30.01,29.89,8,1,8,0.24
2013-12-13,46.4,43.1,40.7,44.8,42.1,39.6,98,96,94,30.28,29.98,5,1,7,0.01
2013-12-14,45.6,42.6,38.3,43.7,41.1,37.5,98,95,92,30.27,30.17,6,1,6,0.00
2013-12-15,49.8,44.9,41.8,47.5,43.7,40.6,98,96,90,30.29,30.19,9,1,9,0.07
2013-12-16,43.1,41.4,39.2,42.5,40.5,38.2,98,97,95,30.33,30.11,3,0,3,0.01
2013-12-17,43.0,40.3,38.1,40.8,39.0,37.1,97,95,91,30.10,29.95,6,1,7,0.00
2013-12-18,48.3,40.7,32.6,41.2,37.0,31.1,98,87,58,29.99,29.85,12,0,12,0.04
2013-12-19,40.1,33.0,28.4,32.3,29.3,25.3,96,87,59,30.18,29.99,3,0,3,0.00
2013-12-20,46.3,36.9,32.1,45.5,35.5,29.5,98,95,88,30.05,29.57,13,2,13,0.14
2013-12-21,46.9,44.0,41.8,45.4,43.0,41.0,98,96,92,30.02,29.68,10,1,10,0.08
2013-12-22,48.6,46.7,44.1,47.5,45.9,43.3,98,97,95,30.15,30.00,9,2,9,0.03
2013-12-23,50.7,46.8,38.7,48.3,43.9,36.8,97,90,74,30.35,30.03,13,2,13,0.17
2013-12-24,42.4,37.9,33.6,39.8,36.2,32.1,98,94,85,30.45,30.35,6,0,6,0.00
2013-12-25,41.5,37.4,34.4,38.8,36.0,33.4,98,95,88,30.36,30.23,3,0,3,0.00
2013-12-26,47.4,36.8,31.7,41.2,34.9,30.9,98,93,76,30.24,30.04,3,0,3,0.00
2013-12-27,43.8,39.0,31.7,42.5,37.7,30.7,97,95,89,30.21,29.98,7,1,7,0.00
2013-12-28,45.3,40.8,38.1,42.7,39.6,37.1,98,95,90,30.36,30.21,4,0,4,0.00
2013-12-29,41.6,39.2,35.6,39.7,38.1,34.4,98,96,92,30.32,30.15,5,0,5,0.00
2013-12-30,43.8,40.5,37.1,40.8,38.8,36.3,98,94,87,30.15,29.97,9,0,9,0.00
2013-12-31,44.7,42.9,40.9,43.8,41.7,39.2,98,95,89,30.22,30.02,6,0,6,0.04
2014-1-1,44.3,42.7,41.5,43.0,41.7,40.4,98,96,92,30.23,30.08,4,0,4,0.02
2014-1-2,49.7,44.7,41.1,44.7,42.0,40.1,97,90,76,30.08,29.77,9,1,9,0.18